Time,TemperatureF,DewpointF,PressureIn,WindDirection,WindDirectionDegrees,WindSpeedMPH,WindSpeedGustMPH,Humidity,HourlyPrecipIn,Conditions,Clouds,dailyrainin,SolarRadiationWatts/m^2,SoftwareType,DateUTC
2013-05-31 00:01:00,66.2,64.4,29.72,WSW,245,5.8,5.8,94,0.00,RA,OVC,0.00,0.0,WeatherDisplay:10.37,2013-05-31 05:01:00,
2013-05-31 00:06:00,66.0,64.5,29.72,SSE,163,4.6,4.6,95,0.00,RA,OVC,0.00,0.0,WeatherDisplay:10.37,2013-05-31 05:06:00,
2013-05-31 00:11:00,66.0,64.5,29.72,SSE,155,5.8,5.8,95,0.00,FEW,OVC,0.00,0.0,WeatherDisplay:10.37,2013-05-31 05:11:00,
2013-05-31 00:16:00,65.8,64.1,29.72,SSE,149,10.4,10.4,94,0.00,FEW,OVC,0.00,0.0,WeatherDisplay:10.37,2013-05-31 05:16:00,
2013-05-31 00:21:00,65.8,64.1,29.72,South,182,4.6,4.6,94,0.00,FEW,OVC,0.00,0.0,WeatherDisplay:10.37,2013-05-31 05:21:00,
2013-05-31 00:26:00,65.8,63.8,29.72,South,176,9.2,9.2,93,0.00,FEW,OVC,0.00,0.0,WeatherDisplay:10.37,2013-05-31 05:26:00,
2013-05-31 00:31:00,65.8,63.8,29.72,South,177,5.8,5.8,93,0.00,FEW,OVC,0.00,0.0,WeatherDisplay:10.37,2013-05-31 05:31:00,
2013-05-31 00:36:00,65.7,63.6,29.72,SSW,201,6.9,6.9,93,0.00,FEW,OVC,0.00,0.0,WeatherDisplay:10.37,2013-05-31 05:36:00,
2013-05-31 00:41:00,65.7,63.6,29.72,SSW,211,9.2,9.2,93,0.00,FEW,OVC,0.00,0.0,WeatherDisplay:10.37,2013-05-31 05:41:00,
2013-05-31 00:46:00,65.5,63.1,29.72,SW,219,3.5,3.5,92,0.00,FEW,OVC,0.00,0.0,WeatherDisplay:10.37,2013-05-31 05:46:00,
2013-05-31 00:51:00,65.3,62.9,29.72,SE,145,8.1,8.1,92,0.00,FEW,OVC,0.00,0.0,WeatherDisplay:10.37,2013-05-31 05:51:00,
2013-05-31 00:56:00,65.3,62.6,29.72,SSW,211,5.8,5.8,91,0.00,FEW,OVC,0.00,0.0,WeatherDisplay:10.37,2013-05-31 05:56:00,
2013-05-31 01:01:00,65.1,62.4,29.72,SE,126,6.9,6.9,91,0.00,FEW,OVC,0.00,0.0,WeatherDisplay:10.37,2013-05-31 06:01:00,
2013-05-31 01:06:00,64.8,62.1,29.72,SW,223,6.9,6.9,91,0.00,FEW,OVC,0.00,0.0,WeatherDisplay:10.37,2013-05-31 06:06:00,
2013-05-31 01:11:00,64.6,62.2,29.72,SSW,192,8.1,8.1,92,0.00,FEW,OVC,0.00,0.0,WeatherDisplay:10.37,2013-05-31 06:11:00,
2013-05-31 01:16:00,64.4,62.0,29.72,SSE,164,5.8,5.8,92,0.00,CLR,OVC,0.00,0.0,WeatherDisplay:10.37,2013-05-31 06:16:00,
2013-05-31 01:21:00,64.2,62.2,29.72,SSW,196,5.8,5.8,93,0.00,CLR,OVC,0.00,0.0,WeatherDisplay:10.37,2013-05-31 06:21:00,
2013-05-31 01:26:00,64.2,62.2,29.72,South,173,8.1,8.1,93,0.00,CLR,OVC,0.00,0.0,WeatherDisplay:10.37,2013-05-31 06:26:00,
2013-05-31 01:31:00,64.0,62.0,29.72,South,182,6.9,6.9,93,0.00,CLR,OVC,0.00,0.0,WeatherDisplay:10.37,2013-05-31 06:31:00,
2013-05-31 01:36:00,63.9,62.1,29.72,SSW,201,8.1,8.1,94,0.00,CLR,OVC,0.00,0.0,WeatherDisplay:10.37,2013-05-31 06:36:00,
2013-05-31 01:41:00,63.9,62.1,29.72,SW,222,8.1,8.1,94,0.00,CLR,OVC,0.00,0.0,WeatherDisplay:10.37,2013-05-31 06:41:00,
2013-05-31 01:46:00,63.7,61.9,29.72,SW,225,8.1,8.1,94,0.00,CLR,OVC,0.00,0.0,WeatherDisplay:10.37,2013-05-31 06:46:00,
2013-05-31 01:51:00,63.5,61.7,29.72,SSW,197,6.9,6.9,94,0.00,CLR,OVC,0.00,0.0,WeatherDisplay:10.37,2013-05-31 06:51:00,
2013-05-31 01:56:00,63.5,62.0,29.72,SW,215,11.5,11.5,95,0.00,CLR,OVC,0.00,0.0,WeatherDisplay:10.37,2013-05-31 06:56:00,
2013-05-31 02:01:00,63.3,61.9,29.72,SSW,204,8.7,8.7,95,0.00,CLR,OVC,0.00,0.0,WeatherDisplay:10.37,2013-05-31 07:01:00,
2013-05-31 02:06:00,63.1,61.7,29.72,South,190,4.6,4.6,95,0.00,CLR,OVC,0.00,0.0,WeatherDisplay:10.37,2013-05-31 07:06:00,
2013-05-31 02:11:00,63.1,62.0,29.72,SSW,206,8.1,8.1,96,0.00,CLR,OVC,0.00,0.0,WeatherDisplay:10.37,2013-05-31 07:11:00,
2013-05-31 02:16:00,63.0,61.8,29.72,SW,232,4.6,4.6,96,0.00,BKN,OVC,0.00,0.0,WeatherDisplay:10.37,2013-05-31 07:16:00,
2013-05-31 02:21:00,63.0,62.1,29.72,SSW,194,6.6,6.6,97,0.00,BKN,OVC,0.00,0.0,WeatherDisplay:10.37,2013-05-31 07:21:00,
2013-05-31 02:26:00,63.0,62.1,29.72,SSE,163,5.8,5.8,97,0.00,BKN,OVC,0.00,0.0,WeatherDisplay:10.37,2013-05-31 07:26:00,
2013-05-31 02:31:00,63.0,62.4,29.72,SSW,212,6.9,6.9,98,0.00,BKN,OVC,0.00,0.0,WeatherDisplay:10.37,2013-05-31 07:31:00,
2013-05-31 02:36:00,63.0,62.4,29.72,South,188,6.9,6.9,98,0.00,OVC,,0.00,0.0,WeatherDisplay:10.37,2013-05-31 07:36:00,
2013-05-31 02:40:00,63.0,62.4,29.72,SSW,207,5.8,5.8,98,0.00,OVC,,0.00,0.0,WeatherDisplay:10.37,2013-05-31 07:40:00,
2013-05-31 02:46:00,63.0,62.4,29.72,South,178,4.6,4.6,98,0.00,OVC,,0.00,0.0,WeatherDisplay:10.37,2013-05-31 07:46:00,
2013-05-31 02:50:00,63.0,62.4,29.72,SSE,168,9.2,9.2,98,0.00,OVC,,0.00,0.0,WeatherDisplay:10.37,2013-05-31 07:50:00,
2013-05-31 02:55:00,63.0,62.7,29.72,SSW,195,8.1,8.1,99,0.00,OVC,,0.00,0.0,WeatherDisplay:10.37,2013-05-31 07:55:00,
2013-05-31 03:00:00,63.1,62.9,29.72,SSW,197,8.0,8.0,99,0.00,OVC,,0.00,0.0,WeatherDisplay:10.37,2013-05-31 08:00:00,
2013-05-31 03:05:00,63.1,62.9,29.72,South,174,9.2,9.2,99,0.00,OVC,,0.00,0.0,WeatherDisplay:10.37,2013-05-31 08:05:00,
2013-05-31 03:10:00,63.1,62.9,29.72,SSW,208,8.1,8.1,99,0.00,OVC,,0.00,0.0,WeatherDisplay:10.37,2013-05-31 08:10:00,
2013-05-31 03:15:00,63.1,62.9,29.72,South,186,8.1,8.1,99,0.00,OVC,,0.00,0.0,WeatherDisplay:10.37,2013-05-31 08:15:00,
2013-05-31 03:20:00,63.1,62.9,29.72,SSW,202,10.4,10.4,99,0.00,OVC,,0.00,0.0,WeatherDisplay:10.37,2013-05-31 08:20:00,
2013-05-31 03:25:00,63.1,62.9,29.72,SSW,194,8.1,8.1,99,0.00,OVC,,0.00,0.0,WeatherDisplay:10.37,2013-05-31 08:25:00,
2013-05-31 03:30:00,63.1,62.9,29.72,SSE,162,9.2,9.2,99,0.00,OVC,,0.00,0.0,WeatherDisplay:10.37,2013-05-31 08:30:00,
2013-05-31 03:35:00,63.1,62.9,29.72,SSW,199,5.8,5.8,99,0.00,OVC,,0.00,0.0,WeatherDisplay:10.37,2013-05-31 08:35:00,
2013-05-31 03:40:00,63.1,62.9,29.72,SSW,200,9.2,9.2,99,0.00,OVC,,0.00,0.0,WeatherDisplay:10.37,2013-05-31 08:40:00,
2013-05-31 03:45:00,63.1,62.9,29.72,SW,234,9.2,9.2,99,0.00,OVC,,0.00,0.0,WeatherDisplay:10.37,2013-05-31 08:45:00,
2013-05-31 03:50:00,63.1,62.9,29.72,SSW,210,9.2,9.2,99,0.00,OVC,,0.00,0.0,WeatherDisplay:10.37,2013-05-31 08:50:00,
2013-05-31 03:55:00,63.1,62.9,29.72,SSE,168,9.2,9.2,99,0.00,OVC,,0.00,0.0,WeatherDisplay:10.37,2013-05-31 08:55:00,
2013-05-31 04:00:00,63.1,62.9,29.72,SSW,202,8.1,8.1,99,0.00,OVC,,0.00,0.0,WeatherDisplay:10.37,2013-05-31 09:00:00,
2013-05-31 04:05:00,63.1,62.9,29.72,South,180,11.5,11.5,99,0.00,OVC,,0.00,0.0,WeatherDisplay:10.37,2013-05-31 09:05:00,
2013-05-31 04:10:00,63.1,62.9,29.72,SW,219,8.1,8.1,99,0.00,OVC,,0.00,0.0,WeatherDisplay:10.37,2013-05-31 09:10:00,
2013-05-31 04:15:00,63.1,62.9,29.72,SSW,197,5.2,5.2,99,0.00,OVC,,0.00,0.0,WeatherDisplay:10.37,2013-05-31 09:15:00,
2013-05-31 04:20:00,63.1,62.9,29.72,SSW,205,8.1,8.1,99,0.00,OVC,,0.00,0.0,WeatherDisplay:10.37,2013-05-31 09:20:00,
2013-05-31 04:25:00,63.1,62.9,29.72,WSW,239,8.1,8.1,99,0.00,OVC,,0.00,0.0,WeatherDisplay:10.37,2013-05-31 09:25:00,
2013-05-31 04:30:00,63.1,62.9,29.72,SSW,195,4.6,4.6,99,0.00,OVC,,0.00,0.0,WeatherDisplay:10.37,2013-05-31 09:30:00,
2013-05-31 04:35:00,63.1,62.9,29.72,SW,235,5.8,5.8,99,0.00,OVC,,0.00,0.0,WeatherDisplay:10.37,2013-05-31 09:35:00,
2013-05-31 04:40:00,63.1,62.9,29.72,SSW,209,8.1,8.1,99,0.00,OVC,,0.00,0.0,WeatherDisplay:10.37,2013-05-31 09:40:00,
2013-05-31 04:45:00,63.1,62.9,29.72,SSW,206,8.1,8.1,99,0.00,OVC,,0.00,0.0,WeatherDisplay:10.37,2013-05-31 09:45:00,
2013-05-31 04:50:00,63.1,62.9,29.72,WSW,244,5.8,5.8,99,0.00,OVC,,0.00,0.0,WeatherDisplay:10.37,2013-05-31 09:50:00,
2013-05-31 04:55:00,63.1,62.9,29.72,SSW,192,5.8,5.8,99,0.00,OVC,,0.00,0.0,WeatherDisplay:10.37,2013-05-31 09:55:00,
2013-05-31 05:00:00,63.1,62.9,29.72,SSW,197,5.8,5.8,99,0.00,OVC,,0.00,0.0,WeatherDisplay:10.37,2013-05-31 10:00:00,
2013-05-31 05:05:00,63.1,62.9,29.72,SSE,162,4.6,4.6,99,0.00,OVC,,0.00,0.0,WeatherDisplay:10.37,2013-05-31 10:05:00,
2013-05-31 05:10:00,63.1,63.1,29.72,SSW,202,5.8,5.8,100,0.00,OVC,,0.00,0.0,WeatherDisplay:10.37,2013-05-31 10:10:00,
2013-05-31 05:15:00,63.1,63.1,29.72,SSW,204,5.8,5.8,100,0.00,BKN,OVC,0.00,0.0,WeatherDisplay:10.37,2013-05-31 10:15:00,
2013-05-31 05:20:00,63.0,63.0,29.72,SSW,210,5.8,0.0,100,0.00,BKN,OVC,0.00,0.0,WeatherDisplay:10.37,2013-05-31 10:20:00,
2013-05-31 05:25:00,63.0,63.0,29.72,SSW,193,5.8,5.8,100,0.00,BKN,OVC,0.00,0.0,WeatherDisplay:10.37,2013-05-31 10:25:00,
2013-05-31 05:30:00,63.0,63.0,29.72,South,173,5.8,5.8,100,0.00,BKN,OVC,0.00,0.0,WeatherDisplay:10.37,2013-05-31 10:30:00,
2013-05-31 05:35:00,62.8,62.8,29.72,WSW,241,6.9,6.9,100,0.00,BKN,OVC,0.00,0.0,WeatherDisplay:10.37,2013-05-31 10:35:00,
2013-05-31 05:40:00,62.6,62.6,29.72,SSW,193,4.6,4.6,100,0.00,BKN,OVC,0.00,0.0,WeatherDisplay:10.37,2013-05-31 10:40:00,
2013-05-31 05:45:00,62.6,62.6,29.72,SW,225,5.8,5.8,100,0.00,BKN,OVC,0.00,0.0,WeatherDisplay:10.37,2013-05-31 10:45:00,
2013-05-31 05:50:00,62.6,62.6,29.72,WSW,258,3.5,3.5,100,0.00,BKN,OVC,0.00,0.0,WeatherDisplay:10.37,2013-05-31 10:50:00,
2013-05-31 05:55:00,62.6,62.6,29.72,SW,236,4.6,4.6,100,0.00,BKN,OVC,0.00,0.0,WeatherDisplay:10.37,2013-05-31 10:55:00,
2013-05-31 06:00:00,62.6,62.6,29.72,South,180,4.6,0.0,100,0.00,BKN,OVC,0.00,0.0,WeatherDisplay:10.37,2013-05-31 11:00:00,
2013-05-31 06:05:00,62.8,62.8,29.72,SSW,200,5.8,5.8,100,0.00,BKN,OVC,0.00,0.0,WeatherDisplay:10.37,2013-05-31 11:05:00,
2013-05-31 06:10:00,62.8,62.8,29.72,SE,140,4.6,4.6,100,0.00,BKN,OVC,0.00,0.0,WeatherDisplay:10.37,2013-05-31 11:10:00,
2013-05-31 06:15:00,62.8,62.8,29.72,SW,236,4.6,4.6,100,0.00,OVC,,0.00,0.0,WeatherDisplay:10.37,2013-05-31 11:15:00,
2013-05-31 06:20:00,62.8,62.8,29.72,South,183,3.5,3.5,100,0.00,OVC,,0.00,0.0,WeatherDisplay:10.37,2013-05-31 11:20:00,
2013-05-31 06:25:00,63.0,63.0,29.72,SSW,195,6.9,6.9,100,0.00,OVC,,0.00,0.0,WeatherDisplay:10.37,2013-05-31 11:25:00,
2013-05-31 06:30:00,63.0,63.0,29.72,SSW,211,6.9,6.9,100,0.00,OVC,,0.00,0.0,WeatherDisplay:10.37,2013-05-31 11:30:00,
2013-05-31 06:35:00,63.3,63.3,29.72,SW,234,9.2,9.2,100,0.00,BKN,OVC,0.00,0.0,WeatherDisplay:10.37,2013-05-31 11:35:00,
2013-05-31 06:40:00,63.5,63.5,29.72,South,174,6.9,6.9,100,0.00,BKN,OVC,0.00,0.0,WeatherDisplay:10.37,2013-05-31 11:40:00,
2013-05-31 06:45:00,63.5,63.5,29.72,SSW,195,6.9,6.9,100,0.00,BKN,OVC,0.00,0.0,WeatherDisplay:10.37,2013-05-31 11:45:00,
2013-05-31 06:50:00,63.5,63.5,29.72,SW,215,9.2,9.2,100,0.00,BKN,OVC,0.00,0.0,WeatherDisplay:10.37,2013-05-31 11:50:00,
2013-05-31 06:55:00,63.5,63.5,29.72,SW,216,6.9,8.0,100,0.00,BKN,OVC,0.00,0.0,WeatherDisplay:10.37,2013-05-31 11:55:00,
2013-05-31 07:00:00,63.5,63.5,29.72,SW,221,8.1,8.1,100,0.00,BKN,OVC,0.00,0.0,WeatherDisplay:10.37,2013-05-31 12:00:00,
2013-05-31 07:05:00,63.7,63.7,29.72,South,187,5.8,5.8,100,0.00,BKN,OVC,0.00,0.0,WeatherDisplay:10.37,2013-05-31 12:05:00,
2013-05-31 07:10:00,64.0,64.0,29.72,WSW,244,9.2,9.2,100,0.00,BKN,OVC,0.00,0.0,WeatherDisplay:10.37,2013-05-31 12:10:00,
2013-05-31 07:15:00,64.2,64.2,29.72,SSE,162,8.1,8.1,100,0.00,BKN,OVC,0.00,0.0,WeatherDisplay:10.37,2013-05-31 12:15:00,
2013-05-31 07:20:00,64.4,64.1,29.72,SSW,196,6.9,6.9,99,0.00,BKN,OVC,0.00,0.0,WeatherDisplay:10.37,2013-05-31 12:20:00,
2013-05-31 07:25:00,64.6,64.3,29.72,South,180,3.5,3.5,99,0.00,OVC,,0.00,0.0,WeatherDisplay:10.37,2013-05-31 12:25:00,
2013-05-31 07:30:00,64.6,64.3,29.69,SSW,203,4.6,4.6,99,0.00,OVC,,0.00,0.0,WeatherDisplay:10.37,2013-05-31 12:30:00,
2013-05-31 07:35:00,64.8,64.2,29.69,WSW,237,6.9,6.9,98,0.00,OVC,,0.00,0.0,WeatherDisplay:10.37,2013-05-31 12:35:00,
2013-05-31 07:40:00,64.8,64.2,29.69,SSW,210,9.2,9.2,98,0.00,OVC,,0.00,0.0,WeatherDisplay:10.37,2013-05-31 12:40:00,
2013-05-31 07:45:00,64.8,63.9,29.72,SSW,213,6.9,6.9,97,0.00,OVC,,0.00,0.0,WeatherDisplay:10.37,2013-05-31 12:45:00,
2013-05-31 07:50:00,64.8,63.9,29.72,SW,223,5.8,5.8,97,0.00,OVC,,0.00,0.0,WeatherDisplay:10.37,2013-05-31 12:50:00,
2013-05-31 07:55:00,64.9,64.1,29.72,SSW,211,10.4,10.4,97,0.00,OVC,,0.00,0.0,WeatherDisplay:10.37,2013-05-31 12:55:00,
2013-05-31 08:00:00,64.9,64.1,29.72,WSW,254,6.9,6.9,97,0.00,OVC,,0.00,0.0,WeatherDisplay:10.37,2013-05-31 13:00:00,
2013-05-31 08:05:00,64.8,63.9,29.72,SW,216,8.1,8.1,97,0.00,OVC,,0.00,0.0,WeatherDisplay:10.37,2013-05-31 13:05:00,
2013-05-31 08:10:00,64.8,63.9,29.72,SW,236,6.9,6.9,97,0.00,OVC,,0.00,0.0,WeatherDisplay:10.37,2013-05-31 13:10:00,
2013-05-31 08:15:00,64.9,64.1,29.72,SSW,206,8.1,8.1,97,0.00,OVC,,0.00,0.0,WeatherDisplay:10.37,2013-05-31 13:15:00,
2013-05-31 08:20:00,65.1,64.2,29.72,SSW,201,10.4,10.4,97,0.00,OVC,,0.00,0.0,WeatherDisplay:10.37,2013-05-31 13:20:00,
2013-05-31 08:25:00,65.5,64.6,29.72,WSW,249,5.8,5.8,97,0.00,OVC,,0.00,0.0,WeatherDisplay:10.37,2013-05-31 13:25:00,
2013-05-31 08:30:00,65.8,65.0,29.75,South,169,8.1,8.1,97,0.00,OVC,,0.00,0.0,WeatherDisplay:10.37,2013-05-31 13:30:00,
2013-05-31 08:35:00,65.8,64.7,29.75,SW,228,4.6,4.6,96,0.00,OVC,,0.00,0.0,WeatherDisplay:10.37,2013-05-31 13:35:00,
2013-05-31 08:40:00,65.8,64.4,29.75,SW,214,5.8,5.8,95,0.00,OVC,,0.00,0.0,WeatherDisplay:10.37,2013-05-31 13:40:00,
2013-05-31 08:45:00,66.0,64.5,29.75,SW,224,5.8,0.0,95,0.00,OVC,,0.00,0.0,WeatherDisplay:10.37,2013-05-31 13:45:00,
2013-05-31 08:50:00,66.4,64.9,29.75,SSW,197,8.1,8.1,95,0.00,OVC,,0.00,0.0,WeatherDisplay:10.37,2013-05-31 13:50:00,
2013-05-31 08:55:00,66.6,64.8,29.75,SW,223,6.9,6.9,94,0.00,OVC,,0.00,0.0,WeatherDisplay:10.37,2013-05-31 13:55:00,
2013-05-31 09:02:00,67.3,64.9,29.75,South,186,6.9,6.9,92,0.00,OVC,,0.00,0.0,WeatherDisplay:10.37,2013-05-31 14:02:00,
2013-05-31 09:07:00,68.0,65.0,29.75,SW,234,5.8,8.0,90,0.00,OVC,,0.00,0.0,WeatherDisplay:10.37,2013-05-31 14:07:00,
2013-05-31 09:12:00,68.0,64.0,29.75,SSW,197,6.9,6.9,87,0.00,OVC,,0.00,0.0,WeatherDisplay:10.37,2013-05-31 14:12:00,
2013-05-31 09:17:00,68.0,63.3,29.75,SW,230,9.2,9.2,85,0.00,OVC,,0.00,0.0,WeatherDisplay:10.37,2013-05-31 14:17:00,
2013-05-31 09:22:00,68.4,63.3,29.75,SSW,211,11.5,11.5,84,0.00,OVC,,0.00,0.0,WeatherDisplay:10.37,2013-05-31 14:22:00,
2013-05-31 09:27:00,68.7,63.3,29.75,SSW,192,9.2,9.2,83,0.00,OVC,,0.00,0.0,WeatherDisplay:10.37,2013-05-31 14:27:00,
2013-05-31 09:32:00,69.1,63.0,29.72,SW,225,12.7,12.7,81,0.00,OVC,,0.00,0.0,WeatherDisplay:10.37,2013-05-31 14:32:00,
2013-05-31 09:37:00,69.3,62.8,29.72,SSW,208,9.2,9.2,80,0.00,OVC,,0.00,0.0,WeatherDisplay:10.37,2013-05-31 14:37:00,
2013-05-31 09:42:00,69.4,62.6,29.72,SSW,210,9.2,9.2,79,0.00,OVC,,0.00,0.0,WeatherDisplay:10.37,2013-05-31 14:42:00,
2013-05-31 09:47:00,70.0,62.8,29.72,SW,223,11.5,11.5,78,0.00,OVC,,0.00,0.0,WeatherDisplay:10.37,2013-05-31 14:47:00,
2013-05-31 09:52:00,70.2,62.2,29.72,SSW,198,13.8,13.8,76,0.00,OVC,,0.00,0.0,WeatherDisplay:10.37,2013-05-31 14:52:00,
2013-05-31 09:57:00,70.0,62.1,29.72,SSW,192,9.2,9.2,76,0.00,OVC,,0.00,0.0,WeatherDisplay:10.37,2013-05-31 14:57:00,
2013-05-31 10:02:00,70.0,62.1,29.72,South,169,8.1,8.1,76,0.00,BKN,OVC,0.00,0.0,WeatherDisplay:10.37,2013-05-31 15:02:00,
2013-05-31 10:07:00,70.2,61.9,29.72,SW,227,8.1,8.1,75,0.00,BKN,OVC,0.00,0.0,WeatherDisplay:10.37,2013-05-31 15:07:00,
2013-05-31 10:12:00,70.5,62.2,29.72,South,184,10.4,10.4,75,0.00,BKN,OVC,0.00,0.0,WeatherDisplay:10.37,2013-05-31 15:12:00,
2013-05-31 10:17:00,70.9,62.2,29.72,SW,235,9.2,9.2,74,0.00,BKN,OVC,0.00,0.0,WeatherDisplay:10.37,2013-05-31 15:17:00,
2013-05-31 10:22:00,71.4,62.3,29.72,South,191,9.2,9.2,73,0.00,SCT,OVC,0.00,0.0,WeatherDisplay:10.37,2013-05-31 15:22:00,
2013-05-31 10:27:00,72.0,62.8,29.72,WSW,246,8.1,8.1,73,0.00,SCT,OVC,0.00,0.0,WeatherDisplay:10.37,2013-05-31 15:27:00,
2013-05-31 10:32:00,72.7,63.1,29.72,SSW,197,9.2,9.2,72,0.00,SCT,OVC,0.00,0.0,WeatherDisplay:10.37,2013-05-31 15:32:00,
2013-05-31 10:37:00,73.4,63.0,29.72,SSE,164,5.8,5.8,70,0.00,SCT,OVC,0.00,0.0,WeatherDisplay:10.37,2013-05-31 15:37:00,
2013-05-31 10:42:00,74.1,63.3,29.72,SE,139,9.2,9.2,69,0.00,SCT,OVC,0.00,0.0,WeatherDisplay:10.37,2013-05-31 15:42:00,
2013-05-31 10:47:00,74.3,62.6,29.72,SW,230,9.2,9.2,67,0.00,SCT,OVC,0.00,0.0,WeatherDisplay:10.37,2013-05-31 15:47:00,
2013-05-31 10:52:00,74.1,62.0,29.72,South,183,9.2,9.2,66,0.00,SCT,OVC,0.00,0.0,WeatherDisplay:10.37,2013-05-31 15:52:00,
2013-05-31 10:57:00,74.3,62.6,29.72,South,170,6.9,6.9,67,0.00,SCT,OVC,0.00,0.0,WeatherDisplay:10.37,2013-05-31 15:57:00,
2013-05-31 11:02:00,74.5,62.8,29.72,SSE,164,4.6,4.6,67,0.00,SCT,OVC,0.00,0.0,WeatherDisplay:10.37,2013-05-31 16:02:00,
2013-05-31 11:07:00,75.0,63.3,29.72,SW,230,6.1,6.1,67,0.00,CLR,OVC,0.00,0.0,WeatherDisplay:10.37,2013-05-31 16:07:00,
2013-05-31 11:12:00,75.4,62.4,29.72,SSW,207,10.4,10.4,64,0.00,CLR,OVC,0.00,0.0,WeatherDisplay:10.37,2013-05-31 16:12:00,
2013-05-31 11:17:00,75.7,63.1,29.72,SW,220,8.7,8.7,65,0.00,CLR,OVC,0.00,0.0,WeatherDisplay:10.37,2013-05-31 16:17:00,
2013-05-31 11:22:00,75.9,62.0,29.72,WSW,240,11.5,11.5,62,0.00,CLR,OVC,0.00,0.0,WeatherDisplay:10.37,2013-05-31 16:22:00,
2013-05-31 11:27:00,75.9,63.3,29.72,South,173,6.9,6.9,65,0.00,CLR,OVC,0.00,0.0,WeatherDisplay:10.37,2013-05-31 16:27:00,
2013-05-31 11:32:00,75.9,62.9,29.72,South,185,8.1,8.1,64,0.00,CLR,OVC,0.00,0.0,WeatherDisplay:10.37,2013-05-31 16:32:00,
2013-05-31 11:37:00,76.1,63.0,29.72,SSW,212,10.4,10.4,64,0.00,CLR,OVC,0.00,0.0,WeatherDisplay:10.37,2013-05-31 16:37:00,
2013-05-31 11:42:00,76.3,61.8,29.72,South,169,8.1,8.1,61,0.00,CLR,OVC,0.00,0.0,WeatherDisplay:10.37,2013-05-31 16:42:00,
2013-05-31 11:47:00,76.5,62.5,29.72,SW,220,6.9,6.9,62,0.00,CLR,OVC,0.00,0.0,WeatherDisplay:10.37,2013-05-31 16:47:00,
2013-05-31 11:52:00,76.8,62.8,29.72,SW,227,5.8,5.8,62,0.00,CLR,OVC,0.00,0.0,WeatherDisplay:10.37,2013-05-31 16:52:00,
2013-05-31 11:57:00,77.4,62.9,29.72,SSW,211,9.2,9.2,61,0.00,CLR,OVC,0.00,0.0,WeatherDisplay:10.37,2013-05-31 16:57:00,
2013-05-31 12:02:00,77.5,62.6,29.72,SSW,213,6.9,6.9,60,0.00,CLR,OVC,0.00,0.0,WeatherDisplay:10.37,2013-05-31 17:02:00,
2013-05-31 12:07:00,77.2,62.7,29.72,SSE,158,6.9,6.9,61,0.00,CLR,OVC,0.00,0.0,WeatherDisplay:10.37,2013-05-31 17:07:00,
2013-05-31 12:12:00,76.8,62.3,29.72,South,178,12.7,12.7,61,0.00,CLR,OVC,0.00,0.0,WeatherDisplay:10.37,2013-05-31 17:12:00,
2013-05-31 12:17:00,77.0,62.5,29.72,WSW,239,5.8,5.8,61,0.00,CLR,OVC,0.00,0.0,WeatherDisplay:10.37,2013-05-31 17:17:00,
2013-05-31 12:22:00,77.2,61.7,29.72,SSE,149,10.4,10.4,59,0.00,CLR,OVC,0.00,0.0,WeatherDisplay:10.37,2013-05-31 17:22:00,
2013-05-31 12:27:00,77.5,62.1,29.72,SSE,156,6.9,6.9,59,0.00,CLR,OVC,0.00,0.0,WeatherDisplay:10.37,2013-05-31 17:27:00,
2013-05-31 12:32:00,77.9,62.4,29.72,SSE,167,5.8,5.8,59,0.00,CLR,OVC,0.00,0.0,WeatherDisplay:10.37,2013-05-31 17:32:00,
2013-05-31 12:37:00,78.1,62.6,29.72,SW,224,13.8,13.8,59,0.00,CLR,OVC,0.00,0.0,WeatherDisplay:10.37,2013-05-31 17:37:00,
2013-05-31 12:42:00,78.1,62.6,29.72,SSE,165,5.8,5.8,59,0.00,CLR,OVC,0.00,0.0,WeatherDisplay:10.37,2013-05-31 17:42:00,
2013-05-31 12:46:00,78.6,63.1,29.72,SSE,165,8.1,8.1,59,0.00,CLR,OVC,0.00,0.0,WeatherDisplay:10.37,2013-05-31 17:46:00,
2013-05-31 12:51:00,78.6,62.6,29.72,SSW,204,9.2,9.2,58,0.00,CLR,OVC,0.00,0.0,WeatherDisplay:10.37,2013-05-31 17:51:00,
2013-05-31 12:56:00,78.4,62.9,29.72,SSW,196,6.9,6.9,59,0.00,CLR,OVC,0.00,0.0,WeatherDisplay:10.37,2013-05-31 17:56:00,
2013-05-31 13:01:00,78.1,62.1,29.72,South,169,11.5,11.5,58,0.00,CLR,OVC,0.00,0.0,WeatherDisplay:10.37,2013-05-31 18:01:00,
2013-05-31 13:06:00,78.3,63.2,29.72,SSW,208,5.8,5.8,60,0.00,BKN,OVC,0.00,0.0,WeatherDisplay:10.37,2013-05-31 18:06:00,
2013-05-31 13:11:00,79.0,63.4,29.72,WSW,241,13.8,13.8,59,0.00,BKN,OVC,0.00,0.0,WeatherDisplay:10.37,2013-05-31 18:11:00,
2013-05-31 13:16:00,78.6,62.6,29.72,SSW,200,9.2,9.2,58,0.00,BKN,OVC,0.00,0.0,WeatherDisplay:10.37,2013-05-31 18:16:00,
2013-05-31 13:21:00,78.1,62.1,29.72,WSW,239,15.0,15.0,58,0.00,BKN,OVC,0.00,0.0,WeatherDisplay:10.37,2013-05-31 18:21:00,
2013-05-31 13:26:00,77.7,62.2,29.72,WSW,237,11.5,11.5,59,0.00,BKN,OVC,0.00,0.0,WeatherDisplay:10.37,2013-05-31 18:26:00,
2013-05-31 13:31:00,77.2,62.2,29.72,SE,141,10.4,10.4,60,0.00,BKN,OVC,0.00,0.0,WeatherDisplay:10.37,2013-05-31 18:31:00,
2013-05-31 13:36:00,76.6,61.7,29.72,SSW,212,10.4,10.4,60,0.00,BKN,OVC,0.00,0.0,WeatherDisplay:10.37,2013-05-31 18:36:00,
2013-05-31 13:41:00,76.6,62.6,29.72,South,186,5.8,5.8,62,0.00,BKN,OVC,0.00,0.0,WeatherDisplay:10.37,2013-05-31 18:41:00,
2013-05-31 13:46:00,76.8,62.3,29.72,SW,218,9.2,9.2,61,0.00,BKN,OVC,0.00,0.0,WeatherDisplay:10.37,2013-05-31 18:46:00,
2013-05-31 13:51:00,76.8,62.3,29.72,SW,223,13.8,13.8,61,0.00,BKN,OVC,0.00,0.0,WeatherDisplay:10.37,2013-05-31 18:51:00,
2013-05-31 13:56:00,77.0,62.5,29.72,ESE,105,13.8,13.8,61,0.00,BKN,OVC,0.00,0.0,WeatherDisplay:10.37,2013-05-31 18:56:00,
2013-05-31 14:01:00,77.9,62.4,29.72,South,191,10.4,10.4,59,0.00,CLR,OVC,0.00,0.0,WeatherDisplay:10.37,2013-05-31 19:01:00,
2013-05-31 14:06:00,78.8,63.3,29.72,South,185,9.2,9.2,59,0.00,CLR,OVC,0.00,0.0,WeatherDisplay:10.37,2013-05-31 19:06:00,
2013-05-31 14:11:00,79.7,63.6,29.72,SE,146,9.2,9.2,58,0.00,CLR,OVC,0.00,0.0,WeatherDisplay:10.37,2013-05-31 19:11:00,
2013-05-31 14:16:00,80.2,63.6,29.72,SW,227,13.8,13.8,57,0.00,CLR,OVC,0.00,0.0,WeatherDisplay:10.37,2013-05-31 19:16:00,
2013-05-31 14:21:00,80.2,63.1,29.72,SSW,211,8.1,8.1,56,0.00,CLR,OVC,0.00,0.0,WeatherDisplay:10.37,2013-05-31 19:21:00,
2013-05-31 14:26:00,80.2,63.1,29.72,South,178,8.1,8.1,56,0.00,CLR,OVC,0.00,0.0,WeatherDisplay:10.37,2013-05-31 19:26:00,
2013-05-31 14:31:00,79.9,62.3,29.72,SW,234,13.8,13.8,55,0.00,CLR,OVC,0.00,0.0,WeatherDisplay:10.37,2013-05-31 19:31:00,
2013-05-31 14:36:00,79.0,61.9,29.72,SW,228,13.8,13.8,56,0.00,CLR,OVC,0.00,0.0,WeatherDisplay:10.37,2013-05-31 19:36:00,
2013-05-31 14:41:00,78.4,61.9,29.72,SE,146,9.2,9.2,57,0.00,CLR,OVC,0.00,0.0,WeatherDisplay:10.37,2013-05-31 19:41:00,
2013-05-31 14:46:00,79.0,62.4,29.72,South,183,9.2,10.1,57,0.00,CLR,OVC,0.00,0.0,WeatherDisplay:10.37,2013-05-31 19:46:00,
2013-05-31 14:51:00,79.7,62.6,29.72,South,186,9.2,9.2,56,0.00,CLR,OVC,0.00,0.0,WeatherDisplay:10.37,2013-05-31 19:51:00,
2013-05-31 14:56:00,80.2,63.1,29.72,SSW,205,9.2,9.2,56,0.00,CLR,OVC,0.00,0.0,WeatherDisplay:10.37,2013-05-31 19:56:00,
2013-05-31 15:01:00,80.4,63.3,29.69,South,191,8.1,8.1,56,0.00,CLR,OVC,0.00,0.0,WeatherDisplay:10.37,2013-05-31 20:01:00,
2013-05-31 15:06:00,80.2,62.6,29.69,SSW,213,8.7,8.7,55,0.00,CLR,OVC,0.00,0.0,WeatherDisplay:10.37,2013-05-31 20:06:00,
2013-05-31 15:11:00,79.9,62.3,29.69,South,180,9.2,9.2,55,0.00,CLR,OVC,0.00,0.0,WeatherDisplay:10.37,2013-05-31 20:11:00,
2013-05-31 15:16:00,79.5,61.9,29.69,WSW,239,8.1,8.1,55,0.00,CLR,OVC,0.00,0.0,WeatherDisplay:10.37,2013-05-31 20:16:00,
2013-05-31 15:21:00,79.3,62.3,29.69,WSW,248,5.8,5.8,56,0.00,CLR,OVC,0.00,0.0,WeatherDisplay:10.37,2013-05-31 20:21:00,
2013-05-31 15:26:00,79.2,62.1,29.69,West,265,11.5,11.5,56,0.00,CLR,OVC,0.00,0.0,WeatherDisplay:10.37,2013-05-31 20:26:00,
2013-05-31 15:31:00,79.0,61.9,29.69,SSW,195,9.2,9.2,56,0.00,CLR,OVC,0.00,0.0,WeatherDisplay:10.37,2013-05-31 20:31:00,
2013-05-31 15:36:00,79.0,61.9,29.69,SSW,195,4.6,7.6,56,0.00,CLR,OVC,0.00,0.0,WeatherDisplay:10.37,2013-05-31 20:36:00,
2013-05-31 15:41:00,78.8,61.8,29.69,SSE,158,9.2,9.2,56,0.00,CLR,OVC,0.00,0.0,WeatherDisplay:10.37,2013-05-31 20:41:00,
2013-05-31 15:46:00,78.4,60.9,29.69,SW,216,11.0,11.0,55,0.00,CLR,OVC,0.00,0.0,WeatherDisplay:10.37,2013-05-31 20:46:00,
2013-05-31 15:51:00,78.1,61.1,29.69,WSW,248,9.2,9.2,56,0.00,CLR,OVC,0.00,0.0,WeatherDisplay:10.37,2013-05-31 20:51:00,
2013-05-31 15:56:00,77.9,60.9,29.69,WSW,237,10.4,10.4,56,0.00,CLR,OVC,0.00,0.0,WeatherDisplay:10.37,2013-05-31 20:56:00,
2013-05-31 16:01:00,78.1,61.1,29.69,South,174,8.1,8.1,56,0.00,CLR,OVC,0.00,0.0,WeatherDisplay:10.37,2013-05-31 21:01:00,
2013-05-31 16:06:00,78.1,60.6,29.69,SSW,207,9.2,9.2,55,0.00,BKN,OVC,0.00,0.0,WeatherDisplay:10.37,2013-05-31 21:06:00,
2013-05-31 16:11:00,77.7,60.8,29.69,SW,235,11.5,11.5,56,0.00,BKN,OVC,0.00,0.0,WeatherDisplay:10.37,2013-05-31 21:11:00,
2013-05-31 16:16:00,77.9,60.9,29.67,SW,218,11.5,11.5,56,0.00,BKN,OVC,0.00,0.0,WeatherDisplay:10.37,2013-05-31 21:16:00,
2013-05-31 16:21:00,77.9,60.9,29.67,SSW,211,9.2,9.2,56,0.00,BKN,OVC,0.00,0.0,WeatherDisplay:10.37,2013-05-31 21:21:00,
2013-05-31 16:26:00,78.1,61.1,29.67,SW,224,9.2,9.2,56,0.00,BKN,OVC,0.00,0.0,WeatherDisplay:10.37,2013-05-31 21:26:00,
2013-05-31 16:31:00,78.1,61.1,29.67,SW,222,9.2,9.2,56,0.00,BKN,OVC,0.00,0.0,WeatherDisplay:10.37,2013-05-31 21:31:00,
2013-05-31 16:36:00,77.9,60.4,29.67,SW,218,12.7,12.7,55,0.00,BKN,OVC,0.00,0.0,WeatherDisplay:10.37,2013-05-31 21:36:00,
2013-05-31 16:41:00,77.5,60.6,29.67,South,188,10.4,10.4,56,0.00,BKN,OVC,0.00,0.0,WeatherDisplay:10.37,2013-05-31 21:41:00,
2013-05-31 16:46:00,77.2,60.3,29.67,SW,216,8.1,8.1,56,0.00,BKN,OVC,0.00,0.0,WeatherDisplay:10.37,2013-05-31 21:46:00,
2013-05-31 16:51:00,77.0,60.1,29.67,SSW,199,8.1,8.1,56,0.00,BKN,OVC,0.00,0.0,WeatherDisplay:10.37,2013-05-31 21:51:00,
2013-05-31 16:56:00,77.2,60.3,29.67,SSW,204,9.2,9.2,56,0.00,BKN,OVC,0.00,0.0,WeatherDisplay:10.37,2013-05-31 21:56:00,
2013-05-31 17:01:00,77.9,60.9,29.67,WSW,256,9.2,9.2,56,0.00,BKN,OVC,0.00,0.0,WeatherDisplay:10.37,2013-05-31 22:01:00,
2013-05-31 17:06:00,78.8,61.3,29.67,SSE,160,16.1,16.1,55,0.00,SCT,OVC,0.00,0.0,WeatherDisplay:10.37,2013-05-31 22:06:00,
2013-05-31 17:11:00,79.2,61.6,29.67,South,187,5.8,5.8,55,0.00,SCT,OVC,0.00,0.0,WeatherDisplay:10.37,2013-05-31 22:11:00,
2013-05-31 17:16:00,79.0,61.4,29.67,SSE,167,5.8,5.8,55,0.00,SCT,OVC,0.00,0.0,WeatherDisplay:10.37,2013-05-31 22:16:00,
2013-05-31 17:21:00,79.5,61.9,29.67,SW,225,8.1,8.1,55,0.00,SCT,OVC,0.00,0.0,WeatherDisplay:10.37,2013-05-31 22:21:00,
2013-05-31 17:26:00,80.1,62.4,29.67,SE,129,6.6,6.6,55,0.00,SCT,OVC,0.00,0.0,WeatherDisplay:10.37,2013-05-31 22:26:00,
2013-05-31 17:31:00,79.9,62.3,29.67,WSW,242,11.5,11.5,55,0.00,SCT,OVC,0.00,0.0,WeatherDisplay:10.37,2013-05-31 22:31:00,
2013-05-31 17:36:00,79.5,61.4,29.67,South,189,10.4,10.4,54,0.00,SCT,OVC,0.00,0.0,WeatherDisplay:10.37,2013-05-31 22:36:00,
2013-05-31 17:41:00,79.2,61.1,29.67,SE,124,10.4,10.4,54,0.00,SCT,OVC,0.00,0.0,WeatherDisplay:10.37,2013-05-31 22:41:00,
2013-05-31 17:46:00,78.8,60.2,29.67,SSW,207,12.7,12.7,53,0.00,SCT,OVC,0.00,0.0,WeatherDisplay:10.37,2013-05-31 22:46:00,
2013-05-31 17:51:00,79.0,60.9,29.67,SSW,202,9.2,9.2,54,0.00,SCT,OVC,0.00,0.0,WeatherDisplay:10.37,2013-05-31 22:51:00,
2013-05-31 17:56:00,78.8,60.2,29.67,SSW,206,8.1,8.1,53,0.00,SCT,OVC,0.00,0.0,WeatherDisplay:10.37,2013-05-31 22:56:00,
2013-05-31 18:01:00,78.3,59.7,29.67,SW,227,12.7,12.7,53,0.00,SCT,OVC,0.00,0.0,WeatherDisplay:10.37,2013-05-31 23:01:00,
2013-05-31 18:06:00,77.7,59.2,29.67,SW,224,13.8,13.8,53,0.00,SCT,OVC,0.00,0.0,WeatherDisplay:10.37,2013-05-31 23:06:00,
2013-05-31 18:11:00,77.2,58.7,29.67,SSW,203,10.4,10.4,53,0.00,SCT,OVC,0.00,0.0,WeatherDisplay:10.37,2013-05-31 23:11:00,
2013-05-31 18:16:00,76.8,59.4,29.67,SW,219,9.2,9.2,55,0.00,SCT,OVC,0.00,0.0,WeatherDisplay:10.37,2013-05-31 23:16:00,
2013-05-31 18:21:00,77.0,59.6,29.67,SSW,197,13.8,13.8,55,0.00,SCT,OVC,0.00,0.0,WeatherDisplay:10.37,2013-05-31 23:21:00,
2013-05-31 18:26:00,77.7,60.3,29.67,South,190,10.4,10.4,55,0.00,SCT,OVC,0.00,0.0,WeatherDisplay:10.37,2013-05-31 23:26:00,
2013-05-31 18:31:00,78.3,60.2,29.67,SSW,208,10.4,10.4,54,0.00,SCT,OVC,0.00,0.0,WeatherDisplay:10.37,2013-05-31 23:31:00,
2013-05-31 18:36:00,78.8,60.7,29.67,SSW,195,9.2,9.2,54,0.00,SCT,OVC,0.00,0.0,WeatherDisplay:10.37,2013-05-31 23:36:00,
2013-05-31 18:41:00,78.8,60.2,29.67,SSW,203,11.5,11.5,53,0.00,SCT,OVC,0.00,0.0,WeatherDisplay:10.37,2013-05-31 23:41:00,
2013-05-31 18:46:00,78.4,58.8,29.67,SW,231,13.8,13.8,51,0.00,SCT,OVC,0.00,0.0,WeatherDisplay:10.37,2013-05-31 23:46:00,
2013-05-31 18:51:00,78.1,59.0,29.67,SW,232,16.1,16.1,52,0.00,SCT,OVC,0.00,0.0,WeatherDisplay:10.37,2013-05-31 23:51:00,
2013-05-31 18:56:00,77.5,59.1,29.67,SSE,166,11.5,11.5,53,0.00,SCT,OVC,0.00,0.0,WeatherDisplay:10.37,2013-05-31 23:56:00,
2013-05-31 19:01:00,76.8,59.4,29.64,SW,214,10.4,10.4,55,0.00,SCT,OVC,0.00,0.0,WeatherDisplay:10.37,2013-06-01 00:01:00,
2013-05-31 19:06:00,75.9,59.1,29.64,SSW,198,8.1,8.1,56,0.00,CLR,OVC,0.00,0.0,WeatherDisplay:10.37,2013-06-01 00:06:00,
2013-05-31 19:11:00,75.4,58.6,29.64,WSW,240,11.5,11.5,56,0.00,CLR,OVC,0.00,0.0,WeatherDisplay:10.37,2013-06-01 00:11:00,
2013-05-31 19:16:00,75.0,58.8,29.64,SW,230,8.1,8.1,57,0.00,CLR,OVC,0.00,0.0,WeatherDisplay:10.37,2013-06-01 00:16:00,
2013-05-31 19:21:00,74.7,58.4,29.64,SW,219,6.9,6.9,57,0.00,CLR,OVC,0.00,0.0,WeatherDisplay:10.37,2013-06-01 00:21:00,
2013-05-31 19:26:00,74.5,58.2,29.64,SW,217,8.1,8.1,57,0.00,CLR,OVC,0.00,0.0,WeatherDisplay:10.37,2013-06-01 00:26:00,
2013-05-31 19:31:00,74.3,58.6,29.64,SSW,211,5.8,5.8,58,0.00,CLR,OVC,0.00,0.0,WeatherDisplay:10.37,2013-06-01 00:31:00,
2013-05-31 19:36:00,74.1,58.9,29.64,South,180,4.6,4.6,59,0.00,CLR,OVC,0.00,0.0,WeatherDisplay:10.37,2013-06-01 00:36:00,
2013-05-31 19:41:00,73.8,58.5,29.64,SSW,195,6.9,6.9,59,0.00,CLR,OVC,0.00,0.0,WeatherDisplay:10.37,2013-06-01 00:41:00,
2013-05-31 19:46:00,73.6,58.8,29.64,SW,223,6.9,6.9,60,0.00,CLR,OVC,0.00,0.0,WeatherDisplay:10.37,2013-06-01 00:46:00,
2013-05-31 19:51:00,73.2,58.5,29.64,SSW,201,5.8,5.8,60,0.00,CLR,OVC,0.00,0.0,WeatherDisplay:10.37,2013-06-01 00:51:00,
2013-05-31 19:56:00,72.9,58.6,29.64,SSW,193,6.9,6.9,61,0.00,CLR,OVC,0.00,0.0,WeatherDisplay:10.37,2013-06-01 00:56:00,
2013-05-31 20:26:00,70.7,58.8,29.67,SW,225,5.8,5.8,66,0.00,CLR,OVC,0.00,0.0,WeatherDisplay:10.37,2013-06-01 01:26:00,
2013-05-31 20:31:00,70.3,58.9,29.67,SSE,150,4.6,4.6,67,0.00,CLR,OVC,0.00,0.0,WeatherDisplay:10.37,2013-06-01 01:31:00,
2013-05-31 20:36:00,70.0,58.9,29.67,SSW,208,4.6,4.6,68,0.00,CLR,OVC,0.00,0.0,WeatherDisplay:10.37,2013-06-01 01:36:00,
2013-05-31 20:41:00,69.6,59.0,29.67,SSW,192,4.6,4.6,69,0.00,CLR,OVC,0.00,0.0,WeatherDisplay:10.37,2013-06-01 01:41:00,
2013-05-31 20:46:00,69.3,58.7,29.64,SSW,200,4.6,4.6,69,0.00,CLR,OVC,0.00,0.0,WeatherDisplay:10.37,2013-06-01 01:46:00,
2013-05-31 20:51:00,69.1,58.9,29.64,West,265,3.5,3.5,70,0.00,CLR,OVC,0.00,0.0,WeatherDisplay:10.37,2013-06-01 01:51:00,
2013-05-31 20:56:00,68.7,58.5,29.64,SSW,203,3.5,3.5,70,0.00,CLR,OVC,0.00,0.0,WeatherDisplay:10.37,2013-06-01 01:56:00,
2013-05-31 21:01:00,68.5,58.8,29.67,SSW,213,3.5,3.5,71,0.00,CLR,OVC,0.00,0.0,WeatherDisplay:10.37,2013-06-01 02:01:00,
2013-05-31 21:39:00,67.8,59.2,29.67,North,0,5.8,0.0,74,0.00,CLR,OVC,0.00,0.0,WeatherDisplay:10.37,2013-06-01 02:39:00,
2013-05-31 21:44:00,67.6,59.1,29.67,South,183,4.6,4.6,74,0.00,FEW,OVC,0.00,0.0,WeatherDisplay:10.37,2013-06-01 02:44:00,
2013-05-31 21:49:00,67.5,59.3,29.67,SSW,208,4.6,0.0,75,0.00,FEW,OVC,0.00,0.0,WeatherDisplay:10.37,2013-06-01 02:49:00,
2013-05-31 21:54:00,67.3,59.1,29.67,SSW,197,3.5,3.5,75,0.00,FEW,OVC,0.00,0.0,WeatherDisplay:10.37,2013-06-01 02:54:00,
2013-05-31 21:59:00,67.1,58.9,29.67,SSW,199,2.3,2.3,75,0.00,FEW,OVC,0.00,0.0,WeatherDisplay:10.37,2013-06-01 02:59:00,
2013-05-31 22:04:00,66.9,59.1,29.67,SSW,202,5.8,0.0,76,0.00,FEW,OVC,0.00,0.0,WeatherDisplay:10.37,2013-06-01 03:04:00,
2013-05-31 22:09:00,66.9,59.1,29.67,SW,218,3.5,3.5,76,0.00,FEW,OVC,0.00,0.0,WeatherDisplay:10.37,2013-06-01 03:09:00,
2013-05-31 22:14:00,66.9,59.5,29.67,SSE,166,3.5,3.5,77,0.00,FEW,OVC,0.00,0.0,WeatherDisplay:10.37,2013-06-01 03:14:00,
2013-05-31 22:19:00,67.1,59.6,29.67,SE,142,5.8,5.8,77,0.00,FEW,OVC,0.00,0.0,WeatherDisplay:10.37,2013-06-01 03:19:00,
2013-05-31 22:24:00,67.1,59.6,29.67,South,185,2.3,2.3,77,0.00,FEW,OVC,0.00,0.0,WeatherDisplay:10.37,2013-06-01 03:24:00,
2013-05-31 22:29:00,67.3,59.8,29.67,SSW,194,4.6,4.6,77,0.00,FEW,OVC,0.00,0.0,WeatherDisplay:10.37,2013-06-01 03:29:00,
2013-05-31 22:34:00,67.3,59.8,29.67,SSW,210,4.6,4.6,77,0.00,FEW,OVC,0.00,0.0,WeatherDisplay:10.37,2013-06-01 03:34:00,
2013-05-31 22:39:00,67.3,59.8,29.67,South,185,2.3,0.0,77,0.00,FEW,OVC,0.00,0.0,WeatherDisplay:10.37,2013-06-01 03:39:00,
2013-05-31 22:44:00,67.3,59.8,29.67,South,185,2.3,0.0,77,0.00,FEW,OVC,0.00,0.0,WeatherDisplay:10.37,2013-06-01 03:44:00,
2013-05-31 22:49:00,67.1,60.0,29.67,SSW,207,3.5,0.0,78,0.00,FEW,OVC,0.00,0.0,WeatherDisplay:10.37,2013-06-01 03:49:00,
2013-05-31 22:54:00,67.1,60.0,29.67,South,182,3.5,0.0,78,0.00,FEW,OVC,0.00,0.0,WeatherDisplay:10.37,2013-06-01 03:54:00,
2013-05-31 22:59:00,67.1,60.0,29.67,SW,234,4.6,4.6,78,0.00,FEW,OVC,0.00,0.0,WeatherDisplay:10.37,2013-06-01 03:59:00,
2013-05-31 23:01:00,67.1,60.0,29.67,SW,234,4.6,4.6,78,0.00,FEW,OVC,0.00,0.0,WeatherDisplay:10.37,2013-06-01 04:01:00,
2013-05-31 23:06:00,66.9,59.8,29.67,SW,227,2.3,0.0,78,0.00,FEW,OVC,0.00,0.0,WeatherDisplay:10.37,2013-06-01 04:06:00,
2013-05-31 23:11:00,66.6,59.5,29.67,WSW,237,3.5,0.0,78,0.00,FEW,OVC,0.00,0.0,WeatherDisplay:10.37,2013-06-01 04:11:00,
2013-05-31 23:16:00,66.4,59.7,29.67,SSE,168,2.8,2.8,79,0.00,FEW,OVC,0.00,0.0,WeatherDisplay:10.37,2013-06-01 04:16:00,
2013-05-31 23:21:00,66.2,59.8,29.67,SSE,163,5.8,0.0,80,0.00,FEW,OVC,0.00,0.0,WeatherDisplay:10.37,2013-06-01 04:21:00,
2013-05-31 23:26:00,66.0,60.0,29.67,SSW,197,3.5,0.0,81,0.00,CLR,OVC,0.00,0.0,WeatherDisplay:10.37,2013-06-01 04:26:00,
2013-05-31 23:31:00,65.8,60.2,29.67,SSW,197,2.3,0.0,82,0.00,CLR,OVC,0.00,0.0,WeatherDisplay:10.37,2013-06-01 04:31:00,
2013-05-31 23:36:00,65.7,60.4,29.67,SSW,197,3.5,3.5,83,0.00,CLR,OVC,0.00,0.0,WeatherDisplay:10.37,2013-06-01 04:36:00,
2013-05-31 23:41:00,65.7,60.7,29.67,SSW,195,2.3,2.3,84,0.00,CLR,OVC,0.00,0.0,WeatherDisplay:10.37,2013-06-01 04:41:00,
2013-05-31 23:46:00,65.5,60.8,29.67,South,184,3.5,3.5,85,0.00,CLR,OVC,0.00,0.0,WeatherDisplay:10.37,2013-06-01 04:46:00,
2013-05-31 23:51:00,65.3,60.7,29.67,SW,224,2.3,0.0,85,0.00,CLR,OVC,0.00,0.0,WeatherDisplay:10.37,2013-06-01 04:51:00,
2013-05-31 23:56:00,65.1,60.8,29.67,SSW,199,4.6,4.6,86,0.00,CLR,OVC,0.00,0.0,WeatherDisplay:10.37,2013-06-01 04:56:00,